Posição BattleTag® Nível Tempo gasto Completo
1. Kaleidoscope 41 2m 33.800s 15/10/2019 02:51:13
PostCoitus 41 2m 33.800s 15/10/2019 02:51:13
3. Yuki 41 2m 38.666s 15/10/2019 02:52:17
Skeletor 41 2m 38.666s 15/10/2019 02:52:17
5. Samson 41 3m 0.950s 14/10/2019 23:38:45
HaNNib4L 41 3m 0.950s 14/10/2019 23:38:45
7. Mefesto 41 3m 3.450s 15/10/2019 22:55:55
DyS 41 3m 3.450s 15/10/2019 22:55:55
9. hingdaitru 41 3m 6.633s 15/10/2019 01:06:57
BloodMav 41 3m 6.633s 15/10/2019 01:06:57
11. Shades 41 3m 9.649s 15/10/2019 04:39:32
CakeMasta 41 3m 9.649s 15/10/2019 04:39:32
13. GhostWolf 41 3m 10.066s 15/10/2019 07:15:56
DFB 41 3m 10.066s 15/10/2019 07:15:56
15. Genesis 41 3m 14.783s 15/10/2019 02:03:20
Krombopulous 41 3m 14.783s 15/10/2019 02:03:20
17. DouglasDuZZ 41 3m 16.150s 15/10/2019 19:15:17
KoisaMandada 41 3m 16.150s 15/10/2019 19:15:17
19. Bigfatk 41 3m 18.466s 15/10/2019 06:57:02
Deepcast 41 3m 18.466s 15/10/2019 06:57:02
21. Maverick 41 3m 19.299s 14/10/2019 23:29:56
crystalbabs 41 3m 19.299s 14/10/2019 23:29:56
23. pabo 41 3m 19.716s 15/10/2019 05:42:19
RyuCyy 41 3m 19.716s 15/10/2019 05:42:19
25. WiseBear 41 3m 20.666s 15/10/2019 05:53:05
HitmaN 41 3m 20.666s 15/10/2019 05:53:05
27. Xadolas 41 3m 21.083s 15/10/2019 20:59:40
alzone 41 3m 21.083s 15/10/2019 20:59:40
29. MuggleMama 41 3m 22.749s 16/10/2019 02:11:28
Jmurda 41 3m 22.749s 16/10/2019 02:11:28
31. Faarrage 41 3m 23.133s 15/10/2019 21:30:05
billtazar 41 3m 23.133s 15/10/2019 21:30:05
33. ZETO 41 3m 23.183s 15/10/2019 02:11:38
ZNiko 41 3m 23.183s 15/10/2019 02:11:38
35. Mpowered 41 3m 24.850s 16/10/2019 00:54:43
LadyD 41 3m 24.850s 16/10/2019 00:54:43
37. oOAkOo 41 3m 25.350s 15/10/2019 21:32:43
JMF420FTP 41 3m 25.350s 15/10/2019 21:32:43
39. wajlas 41 3m 30.616s 15/10/2019 22:47:21
TODFATHER 41 3m 30.616s 15/10/2019 22:47:21
41. delbaeth 41 3m 32.433s 16/10/2019 06:48:09
Boddingtons 41 3m 32.433s 16/10/2019 06:48:09
43. LazyTurtle15 41 3m 33.016s 14/10/2019 22:37:30
AnuNah 41 3m 33.016s 14/10/2019 22:37:30
45. dillpickle 41 3m 33.700s 15/10/2019 06:02:07
46. josee 41 3m 33.799s 15/10/2019 03:31:42
LuckyO7 41 3m 33.799s 15/10/2019 03:31:42
48. Kobayashi 41 3m 34.883s 15/10/2019 21:14:46
Rasdom 41 3m 34.883s 15/10/2019 21:14:46
50. Trueke 41 3m 35.250s 15/10/2019 13:48:05
KuRe 41 3m 35.250s 15/10/2019 13:48:05
52. Leethal 41 3m 35.850s 15/10/2019 00:18:35
KnYTrO 41 3m 35.850s 15/10/2019 00:18:35
54. ToxicCobra 41 3m 36.466s 14/10/2019 21:06:16
Strezz 41 3m 36.466s 14/10/2019 21:06:16
56. ele 41 3m 36.716s 14/10/2019 22:59:11
KageTora 41 3m 36.716s 14/10/2019 22:59:11
58. sprkliunicrn 41 3m 36.883s 15/10/2019 13:22:52
Slidewayz 41 3m 36.883s 15/10/2019 13:22:52
60. Skullcrusher 41 3m 37.199s 15/10/2019 13:50:54
Playateze 41 3m 37.199s 15/10/2019 13:50:54
62. microcon 41 3m 37.466s 15/10/2019 02:13:54
Doubleprizes 41 3m 37.466s 15/10/2019 02:13:54
64. SlappuhDBass 41 3m 38.849s 16/10/2019 02:11:50
JhonesJns 41 3m 38.849s 16/10/2019 02:11:50
66. YAF 41 3m 39.366s 15/10/2019 00:56:21
holygoblin 41 3m 39.366s 15/10/2019 00:56:21
68. Lilboland 41 3m 39.766s 16/10/2019 00:33:01
Chance 41 3m 39.766s 16/10/2019 00:33:01
70. Aznar 41 3m 40.133s 14/10/2019 22:42:39
Xellos 41 3m 40.133s 14/10/2019 22:42:39
72. Grenwar 41 3m 40.616s 15/10/2019 04:26:59
CinnamonRoll 41 3m 40.616s 15/10/2019 04:26:59
74. Fox 41 3m 40.700s 16/10/2019 01:29:15
DrkDragn 41 3m 40.700s 16/10/2019 01:29:15
76. lethan 41 3m 40.750s 14/10/2019 22:14:30
Bill 41 3m 40.750s 14/10/2019 22:14:30
78. MarkEst 41 3m 41.016s 14/10/2019 23:44:52
79. KillerCanTR 41 3m 41.083s 15/10/2019 20:08:58
Wenda 41 3m 41.083s 15/10/2019 20:08:58
81. DarkD 41 3m 41.100s 14/10/2019 22:50:05
GhostDog 41 3m 41.100s 14/10/2019 22:50:05
83. XXSolitudeXX 41 3m 41.583s 14/10/2019 21:17:12
lerue 41 3m 41.583s 14/10/2019 21:17:12
85. Zephers 41 3m 43.233s 15/10/2019 04:52:26
Perodis 41 3m 43.233s 15/10/2019 04:52:26
87. Mochizuki 41 3m 43.266s 16/10/2019 06:09:13
Diablino 41 3m 43.266s 16/10/2019 06:09:13
89. Medrel 41 3m 43.316s 15/10/2019 04:56:05
Tomloon 41 3m 43.316s 15/10/2019 04:56:05
91. KSCHMITTY 41 3m 43.400s 15/10/2019 22:02:30
TomTom 41 3m 43.400s 15/10/2019 22:02:30
93. Quasenada 41 3m 43.516s 15/10/2019 03:52:15
Barbaz 41 3m 43.516s 15/10/2019 03:52:15
95. MegaLink 41 3m 44.000s 15/10/2019 02:18:27
Pitfinder 41 3m 44.000s 15/10/2019 02:18:27
97. Karzai 41 3m 44.183s 15/10/2019 10:49:07
OOMPA 41 3m 44.183s 15/10/2019 10:49:07
99. nithan 41 3m 44.316s 15/10/2019 00:56:30
Parksy 41 3m 44.316s 15/10/2019 00:56:30
101. jaysus 41 3m 44.316s 16/10/2019 05:21:09
Jeez 41 3m 44.316s 16/10/2019 05:21:09
103. Kayle 41 3m 44.433s 15/10/2019 21:51:08
Iskander 41 3m 44.433s 15/10/2019 21:51:08
105. Majortom 41 3m 44.866s 15/10/2019 21:51:34
WARRIOR 41 3m 44.866s 15/10/2019 21:51:34
107. SilverFox 41 3m 44.950s 15/10/2019 15:38:53
Pixelcide 41 3m 44.950s 15/10/2019 15:38:53
109. Cub 41 3m 45.033s 15/10/2019 13:43:57
Lace 41 3m 45.033s 15/10/2019 13:43:57
111. Ungabunga 41 3m 45.116s 15/10/2019 00:58:33
Googerson 41 3m 45.116s 15/10/2019 00:58:33
113. Hyrell 41 3m 45.250s 15/10/2019 17:32:23
Dimitryus 41 3m 45.250s 15/10/2019 17:32:23
115. LTx 41 3m 45.550s 15/10/2019 00:01:24
HugeTank 41 3m 45.550s 15/10/2019 00:01:24
117. sandvik 41 3m 45.866s 15/10/2019 00:58:13
DeadlyMouse 41 3m 45.866s 15/10/2019 00:58:13
119. Ralf 41 3m 45.950s 14/10/2019 21:14:20
OldGit 41 3m 45.950s 14/10/2019 21:14:20
121. rodin 41 3m 46.050s 14/10/2019 22:33:26
RugbyRocker 41 3m 46.050s 14/10/2019 22:33:26
123. daiikren 41 3m 46.450s 15/10/2019 12:11:22
Nicoasd 41 3m 46.450s 15/10/2019 12:11:22
125. Mathael 41 3m 46.750s 16/10/2019 02:04:22
ping 41 3m 46.750s 16/10/2019 02:04:22
127. eXotiK 41 3m 46.866s 14/10/2019 22:12:12
BloodLust6 41 3m 46.866s 14/10/2019 22:12:12
129. Toon 41 3m 46.899s 14/10/2019 21:34:32
otounezacko 41 3m 46.899s 14/10/2019 21:34:32
131. Katsuaro 41 3m 47.133s 15/10/2019 00:45:56
treefiddy 41 3m 47.133s 15/10/2019 00:45:56
133. MadMad85 41 3m 47.750s 15/10/2019 07:48:14
PickleWickle 41 3m 47.750s 15/10/2019 07:48:14
135. Cloudy 41 3m 48.133s 15/10/2019 14:27:40
赤城 41 3m 48.133s 15/10/2019 14:27:40
137. RigerPlz 41 3m 48.149s 15/10/2019 04:32:23
Propaine 41 3m 48.149s 15/10/2019 04:32:23
139. Ian88 41 3m 48.333s 16/10/2019 02:21:34
Khalle 41 3m 48.333s 16/10/2019 02:21:34
141. Shir 41 3m 48.583s 15/10/2019 01:33:40
Thoven 41 3m 48.583s 15/10/2019 01:33:40
143. Lillian 41 3m 48.683s 15/10/2019 04:37:46
Timemachine 41 3m 48.683s 15/10/2019 04:37:46
145. Proeliator 41 3m 48.950s 15/10/2019 04:49:19
146. mari 41 3m 49.050s 15/10/2019 07:29:14
DEAMONCARPER 41 3m 49.050s 15/10/2019 07:29:14
148. Timilon 41 3m 49.200s 14/10/2019 21:40:03
OldManShin 41 3m 49.200s 14/10/2019 21:40:03
150. Coatl 41 3m 49.400s 15/10/2019 03:46:02
luffynote 41 3m 49.400s 15/10/2019 03:46:02
152. Sabugo 41 3m 49.483s 15/10/2019 01:03:43
bobby7 41 3m 49.483s 15/10/2019 01:03:43
154. richard 41 3m 50.166s 16/10/2019 04:29:14
Tattoos77 41 3m 50.166s 16/10/2019 04:29:14
156. ZAVAR 41 3m 50.366s 14/10/2019 21:51:30
nirus 41 3m 50.366s 14/10/2019 21:51:30
158. Thorby 41 3m 50.766s 15/10/2019 05:25:21
Hina 41 3m 50.766s 15/10/2019 05:25:21
160. CPTRedFuzz 41 3m 51.050s 16/10/2019 00:38:40
codeblue405 41 3m 51.050s 16/10/2019 00:38:40
162. okara 41 3m 51.266s 16/10/2019 03:51:37
Mumraa 41 3m 51.266s 16/10/2019 03:51:37
164. 冰雪頑石 41 3m 51.333s 15/10/2019 05:04:57
Raley 41 3m 51.333s 15/10/2019 05:04:57
166. AyamKampus 41 3m 51.383s 15/10/2019 06:32:05
Arcos 41 3m 51.383s 15/10/2019 06:32:05
168. DVA 41 3m 52.266s 15/10/2019 05:16:15
Cosi 41 3m 52.266s 15/10/2019 05:16:15
170. SJG23 41 3m 52.283s 15/10/2019 05:06:23
marcus 41 3m 52.283s 15/10/2019 05:06:23
172. LB1990 41 3m 52.700s 14/10/2019 21:08:53
OogaBooga 41 3m 52.700s 14/10/2019 21:08:53
174. Bimbrr 41 3m 52.733s 15/10/2019 07:30:50
RNGesus 41 3m 52.733s 15/10/2019 07:30:50
176. Ph8tetall 41 3m 53.366s 16/10/2019 04:34:47
Minxxie 41 3m 53.366s 16/10/2019 04:34:47
178. whallberg 41 3m 53.450s 14/10/2019 21:45:44
NegroMafioso 41 3m 53.450s 14/10/2019 21:45:44
180. Ashton 41 3m 53.533s 16/10/2019 00:16:43
Nephrite 41 3m 53.533s 16/10/2019 00:16:43
182. tiziano666 41 3m 53.583s 14/10/2019 23:30:58
HackGamesYT 41 3m 53.583s 14/10/2019 23:30:58
184. Bob908 41 3m 53.950s 15/10/2019 00:29:40
Clown 41 3m 53.950s 15/10/2019 00:29:40
186. Hanzo 41 3m 54.116s 16/10/2019 04:06:20
Soldier76 41 3m 54.116s 16/10/2019 04:06:20
188. GIJoe 41 3m 54.450s 15/10/2019 01:11:32
OzzyCidal 41 3m 54.450s 15/10/2019 01:11:32
190. Mini 41 3m 54.583s 16/10/2019 02:00:03
191. JeDz 41 3m 54.600s 15/10/2019 14:05:21
Kaptiva 41 3m 54.600s 15/10/2019 14:05:21
193. Ethereal 41 3m 54.883s 14/10/2019 21:38:32
VicKo 41 3m 54.883s 14/10/2019 21:38:32
195. Kane 41 3m 54.883s 15/10/2019 11:39:27
Shuntu 41 3m 54.883s 15/10/2019 11:39:27
197. Wompa 41 3m 55.000s 15/10/2019 04:39:59
LuckyGamerHD 41 3m 55.000s 15/10/2019 04:39:59
199. Ninja 41 3m 55.299s 15/10/2019 02:20:16
XBadXKarmaX 41 3m 55.299s 15/10/2019 02:20:16
201. KarposKairos 41 3m 55.450s 16/10/2019 01:12:48
VickP 41 3m 55.450s 16/10/2019 01:12:48
203. Magus02 41 3m 55.483s 15/10/2019 04:55:13
Antithesis 41 3m 55.483s 15/10/2019 04:55:13
205. ToumToumQc 41 3m 55.650s 15/10/2019 22:39:27
LCSQCPatou 41 3m 55.650s 15/10/2019 22:39:27
207. LordSadas420 41 3m 56.083s 15/10/2019 07:48:40
Devastator 41 3m 56.083s 15/10/2019 07:48:40
209. LipNoodle 41 3m 56.716s 16/10/2019 08:12:59
TacosNation 41 3m 56.716s 16/10/2019 08:12:59
211. xfacteur 41 3m 57.100s 15/10/2019 21:27:42
Lazarus666 41 3m 57.100s 15/10/2019 21:27:42
213. BabyDino 41 3m 57.600s 15/10/2019 02:51:43
ĦÏğĤ 41 3m 57.600s 15/10/2019 02:51:43
215. Evilmadcow 41 3m 57.766s 15/10/2019 00:08:28
Jacksonwang 41 3m 57.766s 15/10/2019 00:08:28
217. DEATHDEALER 41 3m 57.883s 15/10/2019 01:47:50
PoRsCheTiGeR 41 3m 57.883s 15/10/2019 01:47:50
219. Nupper 41 3m 58.116s 15/10/2019 17:02:04
Cyclone 41 3m 58.116s 15/10/2019 17:02:04
221. Twiched 41 3m 58.166s 15/10/2019 03:20:49
TwichedAgain 41 3m 58.166s 15/10/2019 03:20:49
223. GhostDragon 41 3m 58.466s 16/10/2019 02:19:46
GiantDwarf 41 3m 58.466s 16/10/2019 02:19:46
225. Hobyah 41 3m 58.950s 14/10/2019 23:40:20
rufusjwb 41 3m 58.950s 14/10/2019 23:40:20
227. Fortytwo 41 3m 59.183s 15/10/2019 22:43:11
Aariakon 41 3m 59.183s 15/10/2019 22:43:11
229. Swiggy 41 3m 59.200s 15/10/2019 00:16:29
Cleo 41 3m 59.200s 15/10/2019 00:16:29
231. Frost 41 3m 59.233s 15/10/2019 00:20:36
master 41 3m 59.233s 15/10/2019 00:20:36
233. Eulogy 41 3m 59.633s 15/10/2019 22:26:39
franca 41 3m 59.633s 15/10/2019 22:26:39
235. Fancypants 41 4m 0.133s 15/10/2019 03:21:06
DanS 41 4m 0.133s 15/10/2019 03:21:06
237. BurningRave 41 4m 0.399s 15/10/2019 13:10:26
Nixaon 41 4m 0.399s 15/10/2019 13:10:26
239. Jiuniang 41 4m 0.433s 15/10/2019 05:57:33
littlepudi 41 4m 0.433s 15/10/2019 05:57:33
241. BloodDrunk 41 4m 0.483s 14/10/2019 23:33:46
Unholy 41 4m 0.483s 14/10/2019 23:33:46
243. Mistakes 41 4m 0.483s 15/10/2019 23:17:29
Nokteronoth 41 4m 0.483s 15/10/2019 23:17:29
245. PsycoSam1979 41 4m 1.166s 15/10/2019 08:34:50
Goldeneye007 41 4m 1.166s 15/10/2019 08:34:50
247. TDog 41 4m 1.316s 15/10/2019 16:07:15
moko82 41 4m 1.316s 15/10/2019 16:07:15
249. Phrytar 41 4m 1.599s 14/10/2019 21:16:19
singlemalt 41 4m 1.599s 14/10/2019 21:16:19
251. MurderByteZ 41 4m 1.666s 15/10/2019 14:19:40
UncleKerbit 41 4m 1.666s 15/10/2019 14:19:40
253. Culapio 41 4m 1.699s 14/10/2019 23:19:15
romualdo 41 4m 1.699s 14/10/2019 23:19:15
255. Evilcheri 41 4m 1.833s 16/10/2019 00:06:07
Nava 41 4m 1.833s 16/10/2019 00:06:07
257. Kat 41 4m 2.050s 15/10/2019 02:18:12
BigBadBear 41 4m 2.050s 15/10/2019 02:18:12
259. TheCowboy 41 4m 2.116s 15/10/2019 02:26:04
Amerina 41 4m 2.116s 15/10/2019 02:26:04
261. Garou 41 4m 2.333s 15/10/2019 21:30:02
DiogoUnha 41 4m 2.333s 15/10/2019 21:30:02
263. Blankhaven 41 4m 2.416s 16/10/2019 04:04:22
Siegwyn 41 4m 2.416s 16/10/2019 04:04:22
265. bulldozer 41 4m 2.433s 14/10/2019 22:58:49
266. Balor 41 4m 2.650s 15/10/2019 06:16:58
TitusPullo 41 4m 2.650s 15/10/2019 06:16:58
268. SwiftZircon 41 4m 2.666s 16/10/2019 02:15:52
Vorlon 41 4m 2.666s 16/10/2019 02:15:52
270. PJB89 41 4m 3.050s 15/10/2019 13:16:56
CaptainKY 41 4m 3.050s 15/10/2019 13:16:56
272. Verger 41 4m 3.399s 15/10/2019 14:36:45
Pablo 41 4m 3.399s 15/10/2019 14:36:45
274. ixXiIiXxi 41 4m 3.599s 15/10/2019 01:34:26
hillbilly1 41 4m 3.599s 15/10/2019 01:34:26
276. Caribosaurus 41 4m 3.616s 16/10/2019 02:55:09
Goutinator 41 4m 3.616s 16/10/2019 02:55:09
278. Meek 41 4m 3.666s 14/10/2019 23:20:22
Chuck 41 4m 3.666s 14/10/2019 23:20:22
280. Ragewalker 41 4m 3.700s 15/10/2019 15:27:10
MTLBADBOY 41 4m 3.700s 15/10/2019 15:27:10
282. CanadianMade 41 4m 3.883s 15/10/2019 07:39:47
Bradford 41 4m 3.883s 15/10/2019 07:39:47
284. Dailo96 41 4m 3.933s 15/10/2019 10:47:01
st3amr0ll3r 41 4m 3.933s 15/10/2019 10:47:01
286. Raizen 41 4m 4.300s 16/10/2019 02:31:14
willieyuji 41 4m 4.300s 16/10/2019 02:31:14
288. Abnet 41 4m 4.349s 16/10/2019 00:44:44
Vantista 41 4m 4.349s 16/10/2019 00:44:44
290. 青豆 41 4m 4.350s 15/10/2019 12:54:33
CHE 41 4m 4.350s 15/10/2019 12:54:33
292. Nobikanu 41 4m 4.500s 15/10/2019 19:20:36
sthpanie 41 4m 4.500s 15/10/2019 19:20:36
294. McMutton 41 4m 4.566s 15/10/2019 04:29:54
unb3li3abl3 41 4m 4.566s 15/10/2019 04:29:54
296. KillEMALL 41 4m 4.783s 14/10/2019 21:18:56
CyberDoc 41 4m 4.783s 14/10/2019 21:18:56
298. JeffSA93 41 4m 4.816s 16/10/2019 03:57:12
Muniz 41 4m 4.816s 16/10/2019 03:57:12
300. EthPower666 41 4m 5.800s 15/10/2019 20:32:24
Sephiroth 41 4m 5.800s 15/10/2019 20:32:24
302. jimboslice 41 4m 6.050s 15/10/2019 06:52:08
SUPE12 41 4m 6.050s 15/10/2019 06:52:08
304. ResSlayer 41 4m 6.133s 15/10/2019 07:17:28
Smidge 41 4m 6.133s 15/10/2019 07:17:28
306. Bidadarik 41 4m 6.450s 14/10/2019 22:00:19
ElsMortis 41 4m 6.450s 14/10/2019 22:00:19
308. Guidedd 41 4m 6.499s 15/10/2019 04:19:17
wdasil 41 4m 6.499s 15/10/2019 04:19:17
310. oNNek 41 4m 6.583s 16/10/2019 00:57:41
xKaabalx 41 4m 6.583s 16/10/2019 00:57:41
312. Argmark 41 4m 7.533s 16/10/2019 05:06:07
SillyGoose 41 4m 7.533s 16/10/2019 05:06:07
314. PC007 41 4m 7.933s 16/10/2019 02:12:18
LunaAura 41 4m 7.933s 16/10/2019 02:12:18
316. SonnyWeems 41 4m 7.983s 16/10/2019 02:30:10
AmpūtēēØƓ 41 4m 7.983s 16/10/2019 02:30:10
318. CelBigorna 41 4m 7.999s 15/10/2019 01:53:44
Cleiton 41 4m 7.999s 15/10/2019 01:53:44
320. Eduardo 41 4m 8.216s 16/10/2019 01:13:04
Slash 41 4m 8.216s 16/10/2019 01:13:04
322. Koss 41 4m 8.400s 15/10/2019 03:50:27
Harpell 41 4m 8.400s 15/10/2019 03:50:27
324. Friesen 41 4m 8.650s 15/10/2019 01:43:17
xRogashx 41 4m 8.650s 15/10/2019 01:43:17
326. Djinnistorm 41 4m 8.666s 14/10/2019 21:46:49
Uthanamor 41 4m 8.666s 14/10/2019 21:46:49
328. willian 41 4m 8.750s 15/10/2019 00:23:01
CosmicPower 41 4m 8.750s 15/10/2019 00:23:01
330. GUIsolo 41 4m 8.900s 15/10/2019 23:33:04
Courtney 41 4m 8.900s 15/10/2019 23:33:04
332. SherAllen 41 4m 9.099s 15/10/2019 11:05:10
Spark 41 4m 9.099s 15/10/2019 11:05:10
334. arnie9 41 4m 9.466s 15/10/2019 02:43:58
KillThemAll 41 4m 9.466s 15/10/2019 02:43:58
336. SirMamon 41 4m 9.799s 14/10/2019 23:04:38
madamemamon 41 4m 9.799s 14/10/2019 23:04:38
338. crazymike 41 4m 10.616s 15/10/2019 00:05:59
Airtrex 41 4m 10.616s 15/10/2019 00:05:59
340. nutsternaths 41 4m 10.666s 15/10/2019 15:13:35
LordHTB 41 4m 10.666s 15/10/2019 15:13:35
342. Tate 41 4m 10.666s 16/10/2019 03:15:43
brangupdx 41 4m 10.666s 16/10/2019 03:15:43
344. esndin 41 4m 10.766s 15/10/2019 18:30:53
Hopper6 41 4m 10.766s 15/10/2019 18:30:53
346. Promiises 41 4m 10.916s 15/10/2019 15:26:30
HexorLee 41 4m 10.916s 15/10/2019 15:26:30
348. Gor 41 4m 11.050s 14/10/2019 21:23:50
Vihelmo 41 4m 11.050s 14/10/2019 21:23:50
350. Keilar 41 4m 11.233s 15/10/2019 00:51:53
Angstrom 41 4m 11.233s 15/10/2019 00:51:53
352. SilentStorm 41 4m 11.233s 16/10/2019 05:28:04
Kaxto 41 4m 11.233s 16/10/2019 05:28:04
354. Deathstalker 41 4m 11.266s 15/10/2019 23:00:44
Yoda 41 4m 11.266s 15/10/2019 23:00:44
356. HELLFIRE 41 4m 11.283s 16/10/2019 03:17:29
Consocrates 41 4m 11.283s 16/10/2019 03:17:29
358. loki 41 4m 11.316s 14/10/2019 21:53:12
moerty123 41 4m 11.316s 14/10/2019 21:53:12
360. Istirees 41 4m 11.316s 14/10/2019 22:13:19
solo 41 4m 11.316s 14/10/2019 22:13:19
362. Henchman21 41 4m 12.733s 14/10/2019 23:39:50
Tucomme 41 4m 12.733s 14/10/2019 23:39:50
364. Marceio 41 4m 12.966s 15/10/2019 03:42:53
Greed 41 4m 12.966s 15/10/2019 03:42:53
366. Medmedusa 41 4m 13.316s 16/10/2019 06:55:18
xNerdyGamerz 41 4m 13.316s 16/10/2019 06:55:18
368. Fox137 41 4m 13.966s 15/10/2019 02:10:36
Detonexx 41 4m 13.966s 15/10/2019 02:10:36
370. Charles 41 4m 14.516s 15/10/2019 17:06:03
OLIVER 41 4m 14.516s 15/10/2019 17:06:03
372. Superunknown 41 4m 14.566s 15/10/2019 01:22:10
arachyr 41 4m 14.566s 15/10/2019 01:22:10
374. NazcaBr 41 4m 15.183s 16/10/2019 00:06:59
Yato 41 4m 15.183s 16/10/2019 00:06:59
376. Topflight 41 4m 15.283s 16/10/2019 03:07:49
Myrodor 41 4m 15.283s 16/10/2019 03:07:49
378. Thorgeous87 41 4m 15.750s 15/10/2019 06:06:06
ErgoSiphon 41 4m 15.750s 15/10/2019 06:06:06
380. Menelaus 41 4m 15.850s 16/10/2019 00:32:15
Shrike 41 4m 15.850s 16/10/2019 00:32:15
382. Armi 41 4m 15.900s 16/10/2019 04:53:08
YORCHS 41 4m 15.900s 16/10/2019 04:53:08
384. rikjamesbtch 41 4m 16.033s 16/10/2019 02:02:13
twinrazer33 41 4m 16.033s 16/10/2019 02:02:13
386. Immortal 41 4m 16.283s 16/10/2019 01:57:41
pogeto 41 4m 16.283s 16/10/2019 01:57:41
388. Mageician 41 4m 16.383s 15/10/2019 00:36:19
Justdruit 41 4m 16.383s 15/10/2019 00:36:19
390. 純屬娛樂 41 4m 16.450s 15/10/2019 03:31:00
Ghost 41 4m 16.450s 15/10/2019 03:31:00
392. Trelia 41 4m 16.533s 16/10/2019 04:23:50
Galdran 41 4m 16.533s 16/10/2019 04:23:50
394. noahboahjoah 41 4m 17.216s 15/10/2019 22:32:51
Cornmastah 41 4m 17.216s 15/10/2019 22:32:51
396. Pokerface 41 4m 17.666s 15/10/2019 12:30:07
kappo2604 41 4m 17.666s 15/10/2019 12:30:07
398. AyyyNem 41 4m 17.766s 15/10/2019 03:37:44
LegionofDoom 41 4m 17.766s 15/10/2019 03:37:44
400. Billy 41 4m 17.850s 14/10/2019 22:44:33
Raffah 41 4m 17.850s 14/10/2019 22:44:33
402. Wolf 41 4m 18.149s 14/10/2019 21:26:03
Xuruya 41 4m 18.149s 14/10/2019 21:26:03
404. Mandump 41 4m 18.350s 15/10/2019 04:49:00
KonvictxD 41 4m 18.350s 15/10/2019 04:49:00
406. Monkey 41 4m 18.383s 15/10/2019 23:36:38
ticklemonstr 41 4m 18.383s 15/10/2019 23:36:38
408. Rosey 41 4m 18.450s 15/10/2019 04:11:41
thejoker429 41 4m 18.450s 15/10/2019 04:11:41
410. Waterwalker 41 4m 18.649s 15/10/2019 21:49:27
Ladyhawke 41 4m 18.649s 15/10/2019 21:49:27
412. Camperhunter 41 4m 19.066s 15/10/2019 00:45:33
ShastaPhi 41 4m 19.066s 15/10/2019 00:45:33
414. keith1233678 41 4m 19.216s 15/10/2019 00:41:17
VonDell 41 4m 19.216s 15/10/2019 00:41:17
416. Hegiton 41 4m 19.266s 15/10/2019 02:14:08
417. Brite 41 4m 19.700s 15/10/2019 11:37:10
EinsteinOne 41 4m 19.700s 15/10/2019 11:37:10
419. Sixtythree 41 4m 19.716s 16/10/2019 05:08:04
bobdolecakes 41 4m 19.716s 16/10/2019 05:08:04
421. calaminekid 41 4m 19.833s 15/10/2019 12:55:08
swefxstdi02 41 4m 19.833s 15/10/2019 12:55:08
423. Fletch 41 4m 20.216s 15/10/2019 00:00:29
IIDCCMII 41 4m 20.216s 15/10/2019 00:00:29
425. CompareXono 41 4m 20.233s 14/10/2019 22:05:20
Birdd 41 4m 20.233s 14/10/2019 22:05:20
427. InSaintly 41 4m 20.233s 16/10/2019 04:36:09
Stitchez 41 4m 20.233s 16/10/2019 04:36:09
429. SQLException 41 4m 20.600s 16/10/2019 04:50:12
Arthur 41 4m 20.600s 16/10/2019 04:50:12
431. Renee 41 4m 20.866s 16/10/2019 02:48:12
Shadow 41 4m 20.866s 16/10/2019 02:48:12
433. MichaelDavid 41 4m 21.000s 14/10/2019 23:03:12
Clay 41 4m 21.000s 14/10/2019 23:03:12
435. ShadowMurloc 41 4m 21.116s 14/10/2019 23:35:37
HandBanana 41 4m 21.116s 14/10/2019 23:35:37
437. Zer0 41 4m 21.349s 15/10/2019 14:44:59
เอกไททัน 41 4m 21.349s 15/10/2019 14:44:59
439. KyrieEleison 41 4m 21.549s 16/10/2019 01:22:57
Rotten 41 4m 21.549s 16/10/2019 01:22:57
441. Ichikiller13 41 4m 21.866s 15/10/2019 00:52:40
Dragon969100 41 4m 21.866s 15/10/2019 00:52:40
443. MMMKAY 41 4m 21.983s 14/10/2019 22:47:52
Snapple 41 4m 21.983s 14/10/2019 22:47:52
445. Carebear 41 4m 22.066s 15/10/2019 20:01:25
Dvst8or 41 4m 22.066s 15/10/2019 20:01:25
447. Ztanch 41 4m 22.150s 14/10/2019 22:29:42
Tea 41 4m 22.150s 14/10/2019 22:29:42
449. Giobruno 41 4m 22.166s 14/10/2019 22:32:27
Relic 41 4m 22.166s 14/10/2019 22:32:27
451. SHREDEM 41 4m 22.933s 16/10/2019 01:37:14
Hohns 41 4m 22.933s 16/10/2019 01:37:14
453. Garrgoyle 41 4m 23.233s 15/10/2019 04:29:52
wilteknix 41 4m 23.233s 15/10/2019 04:29:52
455. Lakri 41 4m 23.333s 15/10/2019 06:06:52
Robilar 41 4m 23.333s 15/10/2019 06:06:52
457. CORTHALAS 41 4m 23.466s 15/10/2019 02:36:59
Iberian 41 4m 23.466s 15/10/2019 02:36:59
459. Aroueyn 41 4m 23.500s 15/10/2019 16:38:19
王瑋梵 41 4m 23.500s 15/10/2019 16:38:19
461. Lovegun 41 4m 23.683s 14/10/2019 22:47:06
Greeniemean 41 4m 23.683s 14/10/2019 22:47:06
463. raeven 41 4m 23.783s 15/10/2019 20:34:17
Hayblinkin 41 4m 23.783s 15/10/2019 20:34:17
465. farfelu 41 4m 23.783s 15/10/2019 23:32:57
Myriiam 41 4m 23.783s 15/10/2019 23:32:57
467. Nooker 41 4m 24.266s 14/10/2019 21:32:38
HannyaMask 41 4m 24.266s 14/10/2019 21:32:38
469. DuySun 41 4m 24.416s 15/10/2019 06:18:58
Naed 41 4m 24.416s 15/10/2019 06:18:58
471. DEGUELLO 41 4m 24.533s 16/10/2019 00:07:05
Fachko 41 4m 24.533s 16/10/2019 00:07:05
473. Ian 41 4m 24.583s 14/10/2019 22:38:30
FJC 41 4m 24.583s 14/10/2019 22:38:30
475. PlasmaSword 41 4m 24.683s 14/10/2019 22:12:51
BlueOcean 41 4m 24.683s 14/10/2019 22:12:51
477. ScabMerchant 41 4m 25.216s 14/10/2019 22:17:21
TunaHelper 41 4m 25.216s 14/10/2019 22:17:21
479. ThyagoRosati 41 4m 25.366s 14/10/2019 23:32:01
CaioGR 41 4m 25.366s 14/10/2019 23:32:01
481. diabolofr65 41 4m 25.449s 15/10/2019 20:53:47
Fire 41 4m 25.449s 15/10/2019 20:53:47
483. Varidall 41 4m 25.766s 15/10/2019 01:31:57
Stashbit 41 4m 25.766s 15/10/2019 01:31:57
485. ramcuphat 41 4m 25.766s 15/10/2019 16:06:35
BLASTER 41 4m 25.766s 15/10/2019 16:06:35
487. Gearoid 41 4m 25.850s 15/10/2019 00:35:12
APOKALYPSE 41 4m 25.850s 15/10/2019 00:35:12
489. Farizeu 41 4m 25.966s 15/10/2019 00:44:56
Gad3iatb 41 4m 25.966s 15/10/2019 00:44:56
491. edmonddantes 41 4m 25.983s 16/10/2019 01:42:22
Skidish 41 4m 25.983s 16/10/2019 01:42:22
493. Morfyus 41 4m 26.250s 15/10/2019 01:06:43
TcMcCOY 41 4m 26.250s 15/10/2019 01:06:43
495. SirenOfTitan 41 4m 26.416s 16/10/2019 01:16:05
BlazinBlind 41 4m 26.416s 16/10/2019 01:16:05
497. IRONBELLE 41 4m 26.783s 15/10/2019 01:24:26
Guru 41 4m 26.783s 15/10/2019 01:24:26
499. Kalashnikov4 41 4m 26.966s 16/10/2019 00:50:35
SerenaaK 41 4m 26.966s 16/10/2019 00:50:35
501. BushWacker 41 4m 27.183s 16/10/2019 05:09:03
JungleLove 41 4m 27.183s 16/10/2019 05:09:03
503. Friknray 41 4m 27.316s 15/10/2019 20:23:59
Dwhiteness 41 4m 27.316s 15/10/2019 20:23:59
505. trfkah 41 4m 27.700s 14/10/2019 22:12:00
Norta 41 4m 27.700s 14/10/2019 22:12:00
507. AceFire 41 4m 27.716s 16/10/2019 00:31:09
TheJimReaper 41 4m 27.716s 16/10/2019 00:31:09
509. Chinelinho 41 4m 28.016s 15/10/2019 01:51:25
Ravok 41 4m 28.016s 15/10/2019 01:51:25
511. Lexnos 41 4m 28.133s 15/10/2019 06:29:40
Nkaiworld 41 4m 28.133s 15/10/2019 06:29:40
513. Loukar 41 4m 28.150s 15/10/2019 00:54:50
LightMastery 41 4m 28.150s 15/10/2019 00:54:50
515. Sithis 41 4m 28.416s 15/10/2019 00:21:41
ShadowBolt 41 4m 28.416s 15/10/2019 00:21:41
517. WENDIGO 41 4m 28.433s 16/10/2019 03:12:44
dorkiangray 41 4m 28.433s 16/10/2019 03:12:44
519. Napes 41 4m 28.450s 15/10/2019 00:06:02
R3beLRioT 41 4m 28.450s 15/10/2019 00:06:02
521. ShinyPants69 41 4m 28.516s 15/10/2019 21:48:35
DSMJAX 41 4m 28.516s 15/10/2019 21:48:35
523. Thock 41 4m 28.733s 15/10/2019 03:05:28
EliteGloogle 41 4m 28.733s 15/10/2019 03:05:28
525. Bilibob 41 4m 28.966s 14/10/2019 22:22:16
526. zzzippy 41 4m 29.000s 15/10/2019 01:05:53
brewstein 41 4m 29.000s 15/10/2019 01:05:53
528. FoxxxDie 41 4m 29.000s 15/10/2019 23:57:39
Azrok 41 4m 29.000s 15/10/2019 23:57:39
530. Terrorbaddie 41 4m 29.083s 14/10/2019 22:25:57
Anubis 41 4m 29.083s 14/10/2019 22:25:57
532. IceGirl 41 4m 29.166s 15/10/2019 00:31:59
Hammer1 41 4m 29.166s 15/10/2019 00:31:59
534. hitmanmick 41 4m 29.383s 15/10/2019 21:44:59
Sythian 41 4m 29.383s 15/10/2019 21:44:59
536. Jeflump 41 4m 29.466s 14/10/2019 22:14:09
Jawney 41 4m 29.466s 14/10/2019 22:14:09
538. JMAY287 41 4m 29.600s 15/10/2019 01:56:10
LuNaTiK 41 4m 29.600s 15/10/2019 01:56:10
540. Jesicat 41 4m 29.883s 15/10/2019 09:54:30
Merkin 41 4m 29.883s 15/10/2019 09:54:30
542. kalanchoe 41 4m 30.650s 14/10/2019 23:42:51
SIMMEGO 41 4m 30.650s 14/10/2019 23:42:51
544. Futuro 41 4m 30.966s 15/10/2019 20:42:25
TouroXray 41 4m 30.966s 15/10/2019 20:42:25
546. josekaper 41 4m 31.066s 15/10/2019 19:12:05
faustoSKZ 41 4m 31.066s 15/10/2019 19:12:05
548. Ribeye 41 4m 31.516s 14/10/2019 22:57:00
Goat 41 4m 31.516s 14/10/2019 22:57:00
550. Fugly 41 4m 31.716s 15/10/2019 23:57:55
Titos 41 4m 31.716s 15/10/2019 23:57:55
552. SixTrash 41 4m 31.816s 14/10/2019 22:52:44
Ninja0919 41 4m 31.816s 14/10/2019 22:52:44
554. dragonYen 41 4m 31.816s 15/10/2019 05:45:15
陰錯 41 4m 31.816s 15/10/2019 05:45:15
556. BruAlmeida 41 4m 31.916s 14/10/2019 23:08:02
RatoFofo 41 4m 31.916s 14/10/2019 23:08:02
558. Clonetrooper 41 4m 32.466s 16/10/2019 07:42:22
Dumpage 41 4m 32.466s 16/10/2019 07:42:22
560. XaoWaiXao 41 4m 32.566s 16/10/2019 00:46:13
HarliQuinn 41 4m 32.566s 16/10/2019 00:46:13
562. rafear 41 4m 32.599s 15/10/2019 02:28:03
Skadi 41 4m 32.599s 15/10/2019 02:28:03
564. Forni 41 4m 32.650s 15/10/2019 01:30:54
Talki 41 4m 32.650s 15/10/2019 01:30:54
566. Jcon1991 41 4m 32.733s 15/10/2019 00:27:17
cluelessn00b 41 4m 32.733s 15/10/2019 00:27:17
568. edlee 41 4m 33.233s 15/10/2019 06:07:50
KateParrot 41 4m 33.233s 15/10/2019 06:07:50
570. Bloodfury 41 4m 33.283s 15/10/2019 00:14:42
revan292 41 4m 33.283s 15/10/2019 00:14:42
572. Litogy 41 4m 33.549s 15/10/2019 05:10:19
TAZ 41 4m 33.549s 15/10/2019 05:10:19
574. BoundinAshes 41 4m 33.650s 15/10/2019 03:06:39
LeaBear 41 4m 33.650s 15/10/2019 03:06:39
576. mikeace 41 4m 35.233s 16/10/2019 01:30:46
Talimar 41 4m 35.233s 16/10/2019 01:30:46
578. SubZero 41 4m 35.299s 16/10/2019 02:13:29
axel 41 4m 35.299s 16/10/2019 02:13:29
580. Onlyonegod 41 4m 35.650s 14/10/2019 23:02:47
Final 41 4m 35.650s 14/10/2019 23:02:47
582. fliinghier 41 4m 36.266s 16/10/2019 00:34:10
Naes 41 4m 36.266s 16/10/2019 00:34:10
584. Stunzy 41 4m 36.333s 15/10/2019 20:56:56
Astro 41 4m 36.333s 15/10/2019 20:56:56
586. Jack 41 4m 36.400s 15/10/2019 01:25:55
BlackWidow 41 4m 36.400s 15/10/2019 01:25:55
588. Gutomiojo 41 4m 36.833s 15/10/2019 22:50:31
Mamedera 41 4m 36.833s 15/10/2019 22:50:31
590. Bigoust 41 4m 37.100s 16/10/2019 03:29:10
Leethal 41 4m 37.100s 16/10/2019 03:29:10
592. Claude 41 4m 37.933s 14/10/2019 23:37:50
dhfun 41 4m 37.933s 14/10/2019 23:37:50
594. novais28 41 4m 38.283s 14/10/2019 23:04:08
Doiderarbom 41 4m 38.283s 14/10/2019 23:04:08
596. XavierClash 41 4m 38.416s 15/10/2019 03:10:22
AngoDur 41 4m 38.416s 15/10/2019 03:10:22
598. Bard621 41 4m 38.450s 16/10/2019 02:31:38
Nalinna 41 4m 38.450s 16/10/2019 02:31:38
600. Chakkraam 41 4m 38.916s 16/10/2019 01:15:58
Mardak 41 4m 38.916s 16/10/2019 01:15:58
602. Scariot 41 4m 38.983s 15/10/2019 01:13:56
shamlss 41 4m 38.983s 15/10/2019 01:13:56
604. Aruca 41 4m 39.583s 15/10/2019 23:41:31
Don 41 4m 39.583s 15/10/2019 23:41:31
606. deamonicus 41 4m 41.850s 16/10/2019 05:58:03
Narsysa 41 4m 41.850s 16/10/2019 05:58:03
608. synapse35 41 4m 41.883s 16/10/2019 00:36:24
ForceOfArms 41 4m 41.883s 16/10/2019 00:36:24
610. Alem 41 4m 41.916s 14/10/2019 22:15:28
Miguelonx3 41 4m 41.916s 14/10/2019 22:15:28
612. BLH 41 4m 42.483s 14/10/2019 21:49:23
Mogsymog 41 4m 42.483s 14/10/2019 21:49:23
614. Wing 41 4m 42.933s 15/10/2019 01:17:35
Timebandit 41 4m 42.933s 15/10/2019 01:17:35
616. Turqtle 41 4m 43.350s 15/10/2019 14:23:18
cloudfield 41 4m 43.350s 15/10/2019 14:23:18
618. Mikibass 41 4m 43.450s 15/10/2019 02:00:08
pinuflo 41 4m 43.450s 15/10/2019 02:00:08
620. Hamfist75 41 4m 44.000s 16/10/2019 02:13:40
Thugwit 41 4m 44.000s 16/10/2019 02:13:40
622. Raine 41 4m 44.283s 16/10/2019 01:08:04
pallysrule 41 4m 44.283s 16/10/2019 01:08:04
624. Jehutyd1987 41 4m 44.483s 15/10/2019 02:15:53
MasterNinja 41 4m 44.483s 15/10/2019 02:15:53
626. Trogdizzle 41 4m 44.600s 15/10/2019 01:29:33
Jasperine 41 4m 44.600s 15/10/2019 01:29:33
628. Kakaroto 41 4m 45.016s 14/10/2019 21:26:27
RCL 41 4m 45.016s 14/10/2019 21:26:27
630. Toobaked 41 4m 45.033s 16/10/2019 00:30:16
RusioMaldito 41 4m 45.033s 16/10/2019 00:30:16
632. WastedTactic 41 4m 45.316s 15/10/2019 21:59:34
Doctore 41 4m 45.316s 15/10/2019 21:59:34
634. victovasco 41 4m 45.600s 14/10/2019 21:39:57
Hypnos 41 4m 45.600s 14/10/2019 21:39:57
636. Golden 41 4m 46.616s 15/10/2019 16:17:36
Carolinus 41 4m 46.616s 15/10/2019 16:17:36
638. LotteCarmine 41 4m 46.983s 15/10/2019 02:00:59
RiskyCactus 41 4m 46.983s 15/10/2019 02:00:59
640. Adee 41 4m 47.266s 15/10/2019 04:15:54
Ajax 41 4m 47.266s 15/10/2019 04:15:54
642. MrMambo 41 4m 47.866s 15/10/2019 02:37:22
Goatboy 41 4m 47.866s 15/10/2019 02:37:22
644. labrat1317 41 4m 47.966s 15/10/2019 02:55:16
Magimac 41 4m 47.966s 15/10/2019 02:55:16
646. Quab 41 4m 48.566s 15/10/2019 03:33:56
Nighlok 41 4m 48.566s 15/10/2019 03:33:56
648. Skizzies 41 4m 48.966s 15/10/2019 03:34:35
Mayhem 41 4m 48.966s 15/10/2019 03:34:35
650. kojak 41 4m 49.450s 14/10/2019 23:49:40
JeanVandamme 41 4m 49.450s 14/10/2019 23:49:40
652. Germenrocks 41 4m 49.450s 15/10/2019 20:02:37
Derpatron 41 4m 49.450s 15/10/2019 20:02:37
654. Wellison 41 4m 49.766s 15/10/2019 01:22:24
Phelipe 41 4m 49.766s 15/10/2019 01:22:24
656. VillageIdiot 41 4m 49.799s 15/10/2019 00:33:40
uzlu 41 4m 49.799s 15/10/2019 00:33:40
658. buddhabelly 41 4m 50.233s 15/10/2019 06:34:22
LorenLT 41 4m 50.233s 15/10/2019 06:34:22
660. Mupzz 41 4m 50.850s 15/10/2019 05:43:23
sarthenn 41 4m 50.850s 15/10/2019 05:43:23
662. EpiclyFishy 41 4m 50.883s 15/10/2019 02:17:07
SassCass23 41 4m 50.883s 15/10/2019 02:17:07
664. Gannon 41 4m 51.450s 15/10/2019 22:39:00
nolimits 41 4m 51.450s 15/10/2019 22:39:00
666. Irapu 41 4m 52.066s 14/10/2019 21:35:55
FKNTWKR 41 4m 52.066s 14/10/2019 21:35:55
668. Marauder 41 4m 52.850s 15/10/2019 20:37:46
Lazerbeak 41 4m 52.850s 15/10/2019 20:37:46
670. NightKnight 41 4m 53.000s 16/10/2019 01:44:35
draey 41 4m 53.000s 16/10/2019 01:44:35
672. Kathric 41 4m 55.383s 15/10/2019 04:30:50
Kiri 41 4m 55.383s 15/10/2019 04:30:50
674. kruemel 41 4m 55.416s 15/10/2019 03:02:43
terry 41 4m 55.416s 15/10/2019 03:02:43
676. Angr 41 4m 55.600s 14/10/2019 22:07:35
rokinbob 41 4m 55.600s 14/10/2019 22:07:35
678. myzery 41 4m 55.616s 16/10/2019 03:21:56
Autolycus 41 4m 55.616s 16/10/2019 03:21:56
680. Matheus 41 4m 55.733s 15/10/2019 02:11:53
Natzaki 41 4m 55.733s 15/10/2019 02:11:53
682. Ene 41 4m 55.849s 15/10/2019 11:43:33
Shookel 41 4m 55.849s 15/10/2019 11:43:33
684. JeffT 41 4m 55.900s 15/10/2019 00:34:36
685. admiralju00 41 4m 56.283s 15/10/2019 03:39:59
Gummy 41 4m 56.283s 15/10/2019 03:39:59
687. GioDx 41 4m 57.366s 14/10/2019 23:52:06
SlimShady 41 4m 57.366s 14/10/2019 23:52:06
689. netto 41 4m 57.966s 15/10/2019 06:04:24
Amira 41 4m 57.966s 15/10/2019 06:04:24
691. Pongo 41 4m 58.066s 15/10/2019 18:49:19
692. juan9713 41 4m 59.100s 14/10/2019 21:50:03
DarkKnight 41 4m 59.100s 14/10/2019 21:50:03
694. yuchak 41 4m 59.266s 15/10/2019 15:30:13
awsomestorm 41 4m 59.266s 15/10/2019 15:30:13
696. NumbSter 41 4m 59.700s 15/10/2019 01:19:30
Rue 41 4m 59.700s 15/10/2019 01:19:30
698. ShadowHawk 41 5m 0.349s 15/10/2019 00:08:58
vlaaren 41 5m 0.349s 15/10/2019 00:08:58
700. JangManWeol 41 5m 0.483s 14/10/2019 22:35:09
leopard 41 5m 0.483s 14/10/2019 22:35:09
702. Oz11 41 5m 0.800s 15/10/2019 07:57:12
Gholdmoon 41 5m 0.800s 15/10/2019 07:57:12
704. Trelyx 41 5m 1.216s 15/10/2019 02:44:23
705. KURTMACREADY 41 5m 1.583s 15/10/2019 22:41:24
itsnotatumor 41 5m 1.583s 15/10/2019 22:41:24
707. BIGMAN 41 5m 1.699s 15/10/2019 23:10:07
Mday 41 5m 1.699s 15/10/2019 23:10:07
709. nihm 41 5m 1.700s 14/10/2019 21:30:58
Kalidnay 41 5m 1.700s 14/10/2019 21:30:58
711. BEAR222 41 5m 1.750s 15/10/2019 21:51:02
TacerLeigh 41 5m 1.750s 15/10/2019 21:51:02
713. MikePR 41 5m 2.366s 15/10/2019 06:46:19
714. Zaerioszx 41 5m 2.683s 15/10/2019 17:33:42
sammaster81 41 5m 2.683s 15/10/2019 17:33:42
716. Sadius 41 5m 3.216s 15/10/2019 17:03:16
hugodrilo 41 5m 3.216s 15/10/2019 17:03:16
718. Storm 41 5m 3.416s 14/10/2019 23:05:49
Yallaw 41 5m 3.416s 14/10/2019 23:05:49
720. C4R3C4 41 5m 3.549s 15/10/2019 22:54:10
JintaHibari 41 5m 3.549s 15/10/2019 22:54:10
722. pondapuff 41 5m 3.599s 14/10/2019 21:18:16
BLight 41 5m 3.599s 14/10/2019 21:18:16
724. BroodMother 41 5m 5.116s 14/10/2019 21:29:28
Cyberjunk9 41 5m 5.116s 14/10/2019 21:29:28
726. Stonesie 41 5m 5.800s 16/10/2019 03:33:53
727. NightShadeXx 41 5m 6.233s 15/10/2019 04:56:33
Potato0 41 5m 6.233s 15/10/2019 04:56:33
729. Slim 41 5m 8.450s 16/10/2019 05:46:44
Wawa2014wewi 41 5m 8.450s 16/10/2019 05:46:44
731. Nova 41 5m 10.383s 16/10/2019 00:55:50
Carn 41 5m 10.383s 16/10/2019 00:55:50
733. H4mbone 41 5m 11.666s 15/10/2019 00:10:14
LordGray 41 5m 11.666s 15/10/2019 00:10:14
735. BigEasy 41 5m 11.716s 16/10/2019 03:20:18
736. HKdiablo 41 5m 11.883s 15/10/2019 13:14:56
737. Truth4u2 41 5m 12.416s 15/10/2019 01:54:28
Legion 41 5m 12.416s 15/10/2019 01:54:28
739. veritas 41 5m 13.216s 14/10/2019 21:53:48
740. Andrekingo 41 5m 13.500s 15/10/2019 01:48:39
asmg20050306 41 5m 13.500s 15/10/2019 01:48:39
742. EppysonJohar 41 5m 13.616s 14/10/2019 21:17:10
Neroz 41 5m 13.616s 14/10/2019 21:17:10
744. crixes769 41 5m 14.200s 15/10/2019 02:54:21
745. Lycan 41 5m 14.966s 15/10/2019 00:12:25
Darelias 41 5m 14.966s 15/10/2019 00:12:25
747. Missy 41 5m 15.200s 15/10/2019 23:05:07
Talonder 41 5m 15.200s 15/10/2019 23:05:07
749. Fernando 41 5m 16.500s 15/10/2019 00:12:41
Bia 41 5m 16.500s 15/10/2019 00:12:41
751. Kech 41 5m 16.616s 15/10/2019 06:39:07
752. CesarArnaldo 41 5m 17.133s 15/10/2019 03:19:22
davidg5854 41 5m 17.133s 15/10/2019 03:19:22
754. NAVEIA 41 5m 17.200s 15/10/2019 03:41:15
antonio157 41 5m 17.200s 15/10/2019 03:41:15
756. natsudragnel 41 5m 17.266s 15/10/2019 01:42:35
RayWindam 41 5m 17.266s 15/10/2019 01:42:35
758. John 41 5m 17.433s 16/10/2019 00:38:20
Kio 41 5m 17.433s 16/10/2019 00:38:20
760. Brenie 41 5m 17.983s 14/10/2019 22:38:52
wdetmers43 41 5m 17.983s 14/10/2019 22:38:52
762. wsguede 41 5m 18.300s 15/10/2019 01:33:48
nhix 41 5m 18.300s 15/10/2019 01:33:48
764. ElevenoKeven 41 5m 18.666s 15/10/2019 23:06:53
Hroddin 41 5m 18.666s 15/10/2019 23:06:53
766. Lueyen 41 5m 20.416s 15/10/2019 04:44:27
Darkz 41 5m 20.416s 15/10/2019 04:44:27
768. Naofumi 41 5m 21.583s 16/10/2019 05:54:11
vixi 41 5m 21.583s 16/10/2019 05:54:11
770. Eski 41 5m 21.866s 15/10/2019 01:09:21
Constant90 41 5m 21.866s 15/10/2019 01:09:21
772. Vulcanno 41 5m 22.316s 14/10/2019 22:24:21
773. Izcoatl66 41 5m 24.283s 16/10/2019 05:05:49
Sharbad 41 5m 24.283s 16/10/2019 05:05:49
775. Mhad 41 5m 25.533s 15/10/2019 15:15:08
Kruang 41 5m 25.533s 15/10/2019 15:15:08
777. Marina 41 5m 26.016s 15/10/2019 16:50:01
SiLentShaDoW 41 5m 26.016s 15/10/2019 16:50:01
779. Devilscreed 41 5m 26.383s 15/10/2019 04:31:39
SweetCarnage 41 5m 26.383s 15/10/2019 04:31:39
781. ThisguyM8 41 5m 26.900s 15/10/2019 07:58:20
rollingturd1 41 5m 26.900s 15/10/2019 07:58:20
783. GAVIN 41 5m 28.633s 15/10/2019 14:24:29
jc1947 41 5m 28.633s 15/10/2019 14:24:29
785. PrncssUnktty 41 5m 29.316s 16/10/2019 02:49:13
CIH137 41 5m 29.316s 16/10/2019 02:49:13
787. DocAlbatross 41 5m 32.750s 15/10/2019 00:16:17
OlliTheGhost 41 5m 32.750s 15/10/2019 00:16:17
789. Shonuff 41 5m 32.816s 16/10/2019 04:21:00
Imaherchu 41 5m 32.816s 16/10/2019 04:21:00
791. Oriane 41 5m 33.300s 16/10/2019 01:27:13
Neimeira 41 5m 33.300s 16/10/2019 01:27:13
793. War10ck 41 5m 33.533s 16/10/2019 00:50:16
794. Kuk1n 41 5m 34.433s 16/10/2019 02:28:15
mapin 41 5m 34.433s 16/10/2019 02:28:15
796. Waif 41 5m 35.283s 15/10/2019 22:32:33
Dreland 41 5m 35.283s 15/10/2019 22:32:33
798. SisterSara 41 5m 39.666s 15/10/2019 00:30:00
Twystedfate 41 5m 39.666s 15/10/2019 00:30:00
800. Amaracus 41 5m 39.966s 16/10/2019 02:39:11
SgtSnacks 41 5m 39.966s 16/10/2019 02:39:11
802. VapeDaddy16 41 5m 41.133s 15/10/2019 03:11:14
CheeseCake 41 5m 41.133s 15/10/2019 03:11:14
804. MaddDI 41 5m 45.900s 15/10/2019 06:52:48
MaddHatt 41 5m 45.900s 15/10/2019 06:52:48
806. Synergy 41 5m 47.566s 15/10/2019 06:08:59
Demonx341 41 5m 47.566s 15/10/2019 06:08:59
808. InfamousCzar 41 5m 51.416s 15/10/2019 04:04:57
Arshiner 41 5m 51.416s 15/10/2019 04:04:57
810. JellyBean 41 5m 52.550s 16/10/2019 01:03:13
armywolf 41 5m 52.550s 16/10/2019 01:03:13
812. GamerTagIt 41 5m 56.616s 14/10/2019 23:15:09
sultain 41 5m 56.616s 14/10/2019 23:15:09
814. Retrobution 41 6m 9.466s 15/10/2019 18:40:53
Agor 41 6m 9.466s 15/10/2019 18:40:53
816. MAMIDONNA 41 6m 15.933s 15/10/2019 23:51:11
RedQueenBee 41 6m 15.933s 15/10/2019 23:51:11
818. Snapcaster 41 7m 29.950s 15/10/2019 13:27:53
Lordaerons3 41 7m 29.950s 15/10/2019 13:27:53
820. Trollgent 41 7m 37.483s 16/10/2019 05:11:09
Untrustable 41 7m 37.483s 16/10/2019 05:11:09
Exibindo 1150 de 821 resultados